This demonstration page uses our WeatherBlox Daily Observations layout. Learn more.

Left ArrowRight Arrow

Hourly Observations for September 11, 2022

Temp ( °F °C ) Dew Point ( °F °C ) Humidity (%) Winds ( mph kmh ) Pressure ( in mb ) Visibility ( mi km ) Precip ( " mm )
12:53 am 00:53 Clear 71 21.7 66 18.9 84 84 Calm 30.08 1019 10 16 0.00 0.00
1:53 am 01:53 Mostly Cloudy 71 21.7 66 18.9 84 84 Calm 30.06 1018 10 16 0.00 0.00
2:53 am 02:53 Mostly Cloudy 70 21.1 66 18.9 87 87 Calm 30.05 1018 10 16 0.00 0.00
3:53 am 03:53 Cloudy 70 21.1 66 18.9 87 87 Calm 30.04 1017 10 16 0.00 0.00
4:42 am 04:42 Cloudy 70 21.1 66 18.9 87 87 Calm 30.03 1017 10 16 0.00 0.00
4:51 am 04:51 Cloudy with Light Rain 70 21 66 19 88 88 Calm 30.03 1017 10 16 0.01 0.13
4:53 am 04:53 Cloudy with Light Rain 70 21.1 66 18.9 87 87 Calm 30.03 1017 10 16 0.01 0.13
5:53 am 05:53 Cloudy with Light Rain 69 20.6 66 18.9 90 90 Calm 30.01 1016 10 16 0.01 0.13
6:53 am 06:53 Cloudy 69 20.6 66 18.9 90 90 Calm 30.02 1017 10 16 0.01 0.13
7:53 am 07:53 Cloudy 69 20.6 67 19.4 93 93 Calm 30.03 1017 10 16 0.00 0.00
8:53 am 08:53 Cloudy 70 21.1 67 19.4 90 90 Calm 30.03 1017 10 16 0.00 0.00
9:53 am 09:53 Cloudy 71 21.7 68 20 90 90 S 3 6 30.02 1017 10 16 0.02 0.51
10:07 am 10:07 Cloudy 71 21.7 68 20 90 90 Calm 30.01 1016 10 16 0.00 0.00
10:53 am 10:53 Cloudy 71 21.7 68 20 90 90 S 5 7 30.01 1016 10 16 0.02 0.51
11:53 am 11:53 Cloudy 73 22.8 68 20 84 84 undefined N/A 30.00 1016 10 16 0.00 0.00
12:37 pm 12:37 Cloudy 74 23.3 68 20 82 82 Calm 29.98 1015 10 16 0.00 0.00
12:53 pm 12:53 Cloudy 75 23.9 68 20 79 79 VRB 3 6 29.98 1015 10 16 0.00 0.00
1:53 pm 13:53 Cloudy with Light Rain 73 22.8 68 20 84 84 VRB 3 6 29.96 1015 9 14 0.01 0.13
2:08 pm 14:08 Mostly Cloudy 76 24.4 69 20.6 79 79 VRB 5 7 29.93 1014 10 16 0.01 0.13
2:33 pm 14:33 Mostly Cloudy 76 24.4 68 20 77 77 Calm 29.93 1013 10 16 0.01 0.13
2:53 pm 14:53 Mostly Cloudy 78 25.6 68 20 71 71 VRB 6 9 29.92 1013 10 16 0.01 0.13
3:29 pm 15:29 Mostly Cloudy 79 26.1 68 20 69 69 VRB 6 9 29.89 1012 10 16 0.00 0.00
3:53 pm 15:53 Mostly Cloudy 79 26.1 68 20 69 69 VRB 3 6 29.89 1012 10 16 0.00 0.00
4:53 pm 16:53 Mostly Cloudy 79 26.1 67 19.4 67 67 VRB 3 6 29.86 1011 10 16 0.00 0.00
5:53 pm 17:53 Mostly Cloudy 80 26.7 68 20 67 67 VRB 6 9 29.85 1011 10 16 0.00 0.00
6:09 pm 18:09 Cloudy with Light Rain 74 23.3 67 19.4 79 79 SSW 10 17 29.86 1011 1 2 0.11 2.79
6:15 pm 18:15 Cloudy with Strong Thunderstorms 71 21.7 68 20 90 90 VRB 6 9 29.87 1012 0 0 0.23 5.84
6:26 pm 18:26 Cloudy with Rain 71 21.7 68 20 90 90 VRB 3 6 29.86 1011 2 3 0.28 7.11
6:34 pm 18:34 Cloudy with Light Rain 71 21.7 69 20.6 93 93 Calm 29.86 1011 6 10 0.28 7.11
6:53 pm 18:53 Mostly Cloudy 72 22.2 69 20.6 91 91 VRB 3 6 29.86 1011 10 16 0.28 7.11
7:53 pm 19:53 Mostly Cloudy 72 22.2 69 20.6 91 91 WNW 10 17 29.87 1011 10 16 0.00 0.00
8:04 pm 20:04 Cloudy with Nearby Thunderstorms 70 21.1 68 20 93 93 VRB 5 7 29.87 1012 2 2 0.11 2.79
8:16 pm 20:16 Cloudy with Rain 70 21.1 68 20 93 93 VRB 3 6 29.87 1012 2 3 0.21 5.33
8:27 pm 20:27 Cloudy with Heavy Rain 69 20.6 68 20 96 96 Calm 29.88 1012 1 2 0.35 8.89
8:36 pm 20:36 Cloudy with Light Rain 69 20.6 68 20 96 96 Calm 29.88 1012 3 4 0.38 9.65
8:43 pm 20:43 Cloudy 69 20.6 68 20 96 96 Calm 29.88 1012 10 16 0.38 9.65
8:53 pm 20:53 Cloudy 69 20.6 67 19.4 93 93 Calm 29.88 1012 10 16 0.38 9.65
9:53 pm 21:53 Cloudy 68 20 67 19.4 96 96 Calm 29.91 1013 10 16 0.00 0.00
10:53 pm 22:53 Cloudy 68 20 67 19.4 96 96 Calm 29.91 1013 8 13 0.00 0.00
11:53 pm 23:53 Cloudy 68 20 67 19.4 96 96 W 5 7 29.91 1013 10 16 0.00 0.00

Powered by AerisWeather